Terug naar catalogus

SL-8 DEB

ActiefLEO
NORAD 2647·DEBRIS·🇷🇺 Russia

Gelanceerd Sep 18, 1965 vanaf Baikonur Cosmodrome

Loading…

Volgende Passages (komende 24 uur)

TLE

VerouderendSource: Space-Track

Epoch: Sep 12, 2026, 14:45 UTC

1 02647U 65073L   26255.61468970 -.00000020  00000-0  49082-3 0  9990
2 02647  56.0664 315.3832 0186947 182.3583 342.6933 12.43717035127506

Volg SL-8 DEB in realtime met AllMySat

Download on the App Store